Time,TemperatureF,DewpointF,PressureIn,WindDirection,WindDirectionDegrees,WindSpeedMPH,WindSpeedGustMPH,Humidity,HourlyPrecipIn,Conditions,Clouds,dailyrainin,SolarRadiationWatts/m^2,SoftwareType,DateUTC
2013-10-16 00:04:00,49.3,43.8,29.77,SW,230,4.0,-999.0,81,0.00,,,0.00,0,WeatherHawk,2013-10-16 05:04:00,
2013-10-16 00:09:00,49.4,43.8,29.76,WSW,240,9.0,-999.0,81,0.00,,,0.00,0,WeatherHawk,2013-10-16 05:09:00,
2013-10-16 00:14:00,49.2,44.0,29.78,SSW,206,7.0,-999.0,82,0.00,,,0.00,1,WeatherHawk,2013-10-16 05:14:00,
2013-10-16 00:19:00,49.2,44.3,29.76,SW,215,3.0,-999.0,83,0.00,,,0.00,0,WeatherHawk,2013-10-16 05:19:00,
2013-10-16 00:24:00,49.2,44.3,29.76,SW,234,6.0,-999.0,83,0.00,,,0.00,0,WeatherHawk,2013-10-16 05:24:00,
2013-10-16 00:29:00,48.9,44.6,29.77,WSW,255,0.0,-999.0,85,0.00,,,0.00,0,WeatherHawk,2013-10-16 05:29:00,
2013-10-16 00:34:00,49.2,44.9,29.78,WSW,238,8.0,-999.0,85,0.00,,,0.00,1,WeatherHawk,2013-10-16 05:34:00,
2013-10-16 00:39:00,49.0,44.7,29.77,WSW,248,4.0,-999.0,85,0.00,,,0.00,0,WeatherHawk,2013-10-16 05:39:00,
2013-10-16 00:44:00,49.2,44.9,29.77,SSW,207,6.0,-999.0,85,0.00,,,0.00,0,WeatherHawk,2013-10-16 05:44:00,
2013-10-16 00:49:00,49.0,44.7,29.78,WSW,240,3.0,-999.0,85,0.00,,,0.00,0,WeatherHawk,2013-10-16 05:49:00,
2013-10-16 00:54:00,49.2,44.9,29.79,WNW,292,5.0,-999.0,85,0.00,,,0.00,0,WeatherHawk,2013-10-16 05:54:00,
2013-10-16 00:59:00,49.1,44.8,29.78,SSE,154,4.0,-999.0,85,0.00,,,0.00,0,WeatherHawk,2013-10-16 05:59:00,
2013-10-16 01:04:00,49.1,44.8,29.78,SW,214,7.0,-999.0,85,0.00,,,0.00,0,WeatherHawk,2013-10-16 06:04:00,
2013-10-16 01:09:00,49.0,44.7,29.78,SW,230,2.0,-999.0,85,0.00,,,0.00,0,WeatherHawk,2013-10-16 06:09:00,
2013-10-16 01:14:00,49.1,44.8,29.78,SW,216,4.0,-999.0,85,0.00,,,0.00,0,WeatherHawk,2013-10-16 06:14:00,
2013-10-16 01:19:00,49.1,44.8,29.77,SW,229,6.0,-999.0,85,0.00,,,0.00,0,WeatherHawk,2013-10-16 06:19:00,
2013-10-16 01:24:00,49.2,44.9,29.77,South,182,5.0,-999.0,85,0.00,,,0.00,1,WeatherHawk,2013-10-16 06:24:00,
2013-10-16 01:29:00,49.2,45.2,29.78,North,349,5.0,-999.0,86,0.00,,,0.00,0,WeatherHawk,2013-10-16 06:29:00,
2013-10-16 01:34:00,49.2,45.2,29.78,WSW,247,4.0,-999.0,86,0.00,,,0.00,0,WeatherHawk,2013-10-16 06:34:00,
2013-10-16 01:39:00,49.2,45.2,29.77,SW,222,6.0,-999.0,86,0.00,,,0.00,0,WeatherHawk,2013-10-16 06:39:00,
2013-10-16 01:44:00,49.2,45.2,29.77,SSE,164,5.0,-999.0,86,0.00,,,0.00,0,WeatherHawk,2013-10-16 06:44:00,
2013-10-16 01:49:00,49.2,45.2,29.77,SW,236,6.0,-999.0,86,0.00,,,0.00,0,WeatherHawk,2013-10-16 06:49:00,
2013-10-16 01:54:00,49.2,45.1,29.78,SSW,203,7.0,-999.0,86,0.00,,,0.00,0,WeatherHawk,2013-10-16 06:54:00,
2013-10-16 01:59:00,49.0,45.3,29.77,SW,230,4.0,-999.0,87,0.00,,,0.00,0,WeatherHawk,2013-10-16 06:59:00,
2013-10-16 02:04:00,49.0,45.3,29.77,SW,217,4.0,-999.0,87,0.00,,,0.00,1,WeatherHawk,2013-10-16 07:04:00,
2013-10-16 02:09:00,49.0,45.6,29.77,SSW,209,3.0,-999.0,88,0.00,,,0.00,0,WeatherHawk,2013-10-16 07:09:00,
2013-10-16 02:14:00,49.0,45.3,29.77,South,186,5.0,-999.0,87,0.00,,,0.00,0,WeatherHawk,2013-10-16 07:14:00,
2013-10-16 02:19:00,48.9,45.5,29.77,SW,217,2.0,-999.0,88,0.00,,,0.00,0,WeatherHawk,2013-10-16 07:19:00,
2013-10-16 02:24:00,49.0,45.6,29.77,SSE,168,5.0,-999.0,88,0.00,,,0.00,0,WeatherHawk,2013-10-16 07:24:00,
2013-10-16 02:29:00,49.0,45.6,29.77,West,279,5.0,-999.0,88,0.00,,,0.00,0,WeatherHawk,2013-10-16 07:29:00,
2013-10-16 02:34:00,49.0,45.9,29.78,South,175,7.0,-999.0,89,0.00,,,0.00,0,WeatherHawk,2013-10-16 07:34:00,
2013-10-16 02:39:00,48.9,45.8,29.77,SW,231,4.0,-999.0,89,0.00,,,0.00,0,WeatherHawk,2013-10-16 07:39:00,
2013-10-16 02:44:00,49.0,45.9,29.78,South,184,5.0,-999.0,89,0.00,,,0.00,0,WeatherHawk,2013-10-16 07:44:00,
2013-10-16 02:49:00,49.0,45.9,29.78,WSW,252,3.0,-999.0,89,0.00,,,0.00,0,WeatherHawk,2013-10-16 07:49:00,
2013-10-16 02:54:00,48.9,46.1,29.77,SSW,200,4.0,-999.0,90,0.00,,,0.00,0,WeatherHawk,2013-10-16 07:54:00,
2013-10-16 02:59:00,48.8,46.0,29.77,WSW,241,1.0,-999.0,90,0.00,,,0.00,0,WeatherHawk,2013-10-16 07:59:00,
2013-10-16 03:04:00,49.0,46.2,29.77,SW,214,7.0,-999.0,90,0.00,,,0.00,0,WeatherHawk,2013-10-16 08:04:00,
2013-10-16 03:09:00,48.9,46.1,29.78,WSW,251,3.0,-999.0,90,0.00,,,0.00,0,WeatherHawk,2013-10-16 08:09:00,
2013-10-16 03:14:00,49.0,46.2,29.77,WSW,254,6.0,-999.0,90,0.00,,,0.00,0,WeatherHawk,2013-10-16 08:14:00,
2013-10-16 03:19:00,49.0,46.1,29.77,WSW,238,4.0,-999.0,90,0.00,,,0.00,0,WeatherHawk,2013-10-16 08:19:00,
2013-10-16 03:24:00,48.8,46.3,29.77,SSW,195,2.0,-999.0,91,0.00,,,0.00,0,WeatherHawk,2013-10-16 08:24:00,
2013-10-16 03:29:00,48.9,46.4,29.77,WSW,247,4.0,-999.0,91,0.00,,,0.00,0,WeatherHawk,2013-10-16 08:29:00,
2013-10-16 03:34:00,48.8,46.3,29.77,WSW,243,1.0,-999.0,91,0.00,,,0.00,0,WeatherHawk,2013-10-16 08:34:00,
2013-10-16 03:39:00,48.9,46.3,29.77,WSW,254,2.0,-999.0,91,0.00,,,0.00,0,WeatherHawk,2013-10-16 08:39:00,
2013-10-16 03:44:00,48.8,46.5,29.77,South,188,2.0,-999.0,92,0.00,,,0.00,0,WeatherHawk,2013-10-16 08:44:00,
2013-10-16 03:49:00,48.7,46.7,29.77,SW,230,6.0,-999.0,93,0.00,,,0.00,0,WeatherHawk,2013-10-16 08:49:00,
2013-10-16 03:54:00,48.5,46.8,29.77,SSW,205,3.0,-999.0,94,0.00,,,0.00,0,WeatherHawk,2013-10-16 08:54:00,
2013-10-16 03:59:00,48.4,47.0,29.77,SSW,211,5.0,-999.0,95,0.00,,,0.00,2,WeatherHawk,2013-10-16 08:59:00,
2013-10-16 04:04:00,48.4,47.0,29.77,South,181,4.0,-999.0,95,0.00,,,0.00,0,WeatherHawk,2013-10-16 09:04:00,
2013-10-16 04:09:00,48.3,47.2,29.76,West,260,3.0,-999.0,96,0.00,,,0.00,0,WeatherHawk,2013-10-16 09:09:00,
2013-10-16 04:14:00,48.2,47.4,29.77,WSW,239,0.0,-999.0,97,0.00,,,0.00,0,WeatherHawk,2013-10-16 09:14:00,
2013-10-16 04:19:00,48.1,47.3,29.76,SW,234,5.0,-999.0,97,0.00,,,0.00,0,WeatherHawk,2013-10-16 09:19:00,
2013-10-16 04:24:00,48.2,47.6,29.77,WSW,240,4.0,-999.0,98,0.00,,,0.00,0,WeatherHawk,2013-10-16 09:24:00,
2013-10-16 04:29:00,48.1,47.6,29.76,SW,221,3.0,-999.0,98,0.00,,,0.00,0,WeatherHawk,2013-10-16 09:29:00,
2013-10-16 04:34:00,48.2,47.6,29.77,SW,226,4.0,-999.0,98,0.00,,,0.00,0,WeatherHawk,2013-10-16 09:34:00,
2013-10-16 04:39:00,48.1,47.6,29.77,West,267,4.0,-999.0,98,0.00,,,0.00,0,WeatherHawk,2013-10-16 09:39:00,
2013-10-16 04:44:00,48.1,47.5,29.76,SSW,194,8.0,-999.0,98,0.00,,,0.00,0,WeatherHawk,2013-10-16 09:44:00,
2013-10-16 04:49:00,48.0,47.5,29.76,SW,231,2.0,-999.0,98,0.00,,,0.00,0,WeatherHawk,2013-10-16 09:49:00,
2013-10-16 04:54:00,48.0,47.5,29.77,SSW,213,4.0,-999.0,98,0.00,,,0.00,0,WeatherHawk,2013-10-16 09:54:00,
2013-10-16 04:59:00,48.0,47.7,29.77,SW,229,1.0,-999.0,99,0.00,,,0.00,0,WeatherHawk,2013-10-16 09:59:00,
2013-10-16 05:04:00,48.1,47.8,29.78,SW,221,3.0,-999.0,99,0.00,,,0.00,0,WeatherHawk,2013-10-16 10:04:00,
2013-10-16 05:09:00,48.1,47.9,29.76,SW,225,0.0,-999.0,99,0.00,,,0.00,0,WeatherHawk,2013-10-16 10:09:00,
2013-10-16 05:14:00,48.1,47.8,29.77,SW,224,2.0,-999.0,99,0.00,,,0.00,0,WeatherHawk,2013-10-16 10:14:00,
2013-10-16 05:19:00,48.0,48.0,29.77,SW,215,2.0,-999.0,100,0.00,,,0.00,0,WeatherHawk,2013-10-16 10:19:00,
2013-10-16 05:24:00,47.8,47.8,29.77,WSW,252,4.0,-999.0,100,0.00,,,0.00,0,WeatherHawk,2013-10-16 10:24:00,
2013-10-16 05:29:00,47.8,47.8,29.78,WSW,248,3.0,-999.0,100,0.00,,,0.00,0,WeatherHawk,2013-10-16 10:29:00,
2013-10-16 05:34:00,47.8,47.8,29.77,SW,226,2.0,-999.0,100,0.00,,,0.00,0,WeatherHawk,2013-10-16 10:34:00,
2013-10-16 05:39:00,47.8,47.8,29.77,WSW,241,3.0,-999.0,100,0.00,,,0.00,0,WeatherHawk,2013-10-16 10:39:00,
2013-10-16 05:44:00,47.8,47.8,29.77,WNW,282,3.0,-999.0,100,0.00,,,0.00,0,WeatherHawk,2013-10-16 10:44:00,
2013-10-16 05:49:00,47.8,47.8,29.77,SSW,213,1.0,-999.0,100,0.00,,,0.00,1,WeatherHawk,2013-10-16 10:49:00,
2013-10-16 05:54:00,47.8,47.8,29.78,SW,233,7.0,-999.0,100,0.00,,,0.00,0,WeatherHawk,2013-10-16 10:54:00,
2013-10-16 05:59:00,47.8,47.8,29.77,SSW,199,5.0,-999.0,100,0.00,,,0.00,0,WeatherHawk,2013-10-16 10:59:00,
2013-10-16 06:04:00,47.7,47.7,29.77,SW,235,2.0,-999.0,100,0.00,,,0.00,0,WeatherHawk,2013-10-16 11:04:00,
2013-10-16 06:09:00,47.8,47.8,29.78,NNW,336,4.0,-999.0,100,0.00,,,0.00,0,WeatherHawk,2013-10-16 11:09:00,
2013-10-16 06:14:00,47.8,47.8,29.77,SW,233,2.0,-999.0,100,0.00,,,0.00,0,WeatherHawk,2013-10-16 11:14:00,
2013-10-16 06:19:00,47.8,47.8,29.77,SW,217,5.0,-999.0,100,0.00,,,0.00,0,WeatherHawk,2013-10-16 11:19:00,
2013-10-16 06:24:00,47.8,47.8,29.77,SW,214,1.0,-999.0,100,0.00,,,0.00,0,WeatherHawk,2013-10-16 11:24:00,
2013-10-16 06:29:00,47.8,47.8,29.78,WSW,251,3.0,-999.0,100,0.00,,,0.00,0,WeatherHawk,2013-10-16 11:29:00,
2013-10-16 06:34:00,47.9,47.9,29.78,SW,219,2.0,-999.0,100,0.00,,,0.00,0,WeatherHawk,2013-10-16 11:34:00,
2013-10-16 06:39:00,47.9,47.9,29.78,SW,229,1.0,-999.0,100,0.00,,,0.00,0,WeatherHawk,2013-10-16 11:39:00,
2013-10-16 06:44:00,47.9,47.9,29.78,SW,223,4.0,-999.0,100,0.00,,,0.00,0,WeatherHawk,2013-10-16 11:44:00,
2013-10-16 06:49:00,47.9,47.9,29.78,SSW,201,1.0,-999.0,100,0.00,,,0.00,0,WeatherHawk,2013-10-16 11:49:00,
2013-10-16 06:54:00,47.9,47.9,29.78,WSW,249,3.0,-999.0,100,0.00,,,0.00,0,WeatherHawk,2013-10-16 11:54:00,
2013-10-16 06:59:00,48.0,48.0,29.78,SW,225,2.0,-999.0,100,0.00,,,0.00,0,WeatherHawk,2013-10-16 11:59:00,
2013-10-16 07:04:00,48.1,48.1,29.78,West,264,4.0,-999.0,100,0.00,,,0.00,1,WeatherHawk,2013-10-16 12:04:00,
2013-10-16 07:09:00,48.1,48.1,29.78,SSW,211,5.0,-999.0,100,0.00,,,0.00,0,WeatherHawk,2013-10-16 12:09:00,
2013-10-16 07:14:00,48.1,48.1,29.79,WNW,298,5.0,-999.0,100,0.00,,,0.00,2,WeatherHawk,2013-10-16 12:14:00,
2013-10-16 07:19:00,48.0,48.0,29.78,WSW,256,5.0,-999.0,100,0.00,,,0.00,1,WeatherHawk,2013-10-16 12:19:00,
2013-10-16 07:24:00,48.1,48.1,29.79,West,281,5.0,-999.0,100,0.00,,,0.00,2,WeatherHawk,2013-10-16 12:24:00,
2013-10-16 07:29:00,48.1,48.1,29.79,WSW,244,3.0,-999.0,100,0.00,,,0.00,5,WeatherHawk,2013-10-16 12:29:00,
2013-10-16 07:34:00,48.2,48.2,29.79,West,278,1.0,-999.0,100,0.00,,,0.00,6,WeatherHawk,2013-10-16 12:34:00,
2013-10-16 07:39:00,48.2,48.2,29.79,WSW,258,0.0,-999.0,100,0.00,,,0.00,7,WeatherHawk,2013-10-16 12:39:00,
2013-10-16 07:44:00,48.3,48.3,29.80,SW,232,4.0,-999.0,100,0.00,,,0.00,8,WeatherHawk,2013-10-16 12:44:00,
2013-10-16 07:49:00,48.4,48.4,29.80,West,281,1.0,-999.0,100,0.00,,,0.00,9,WeatherHawk,2013-10-16 12:49:00,
2013-10-16 07:54:00,48.4,48.4,29.80,WSW,251,3.0,-999.0,100,0.00,,,0.00,14,WeatherHawk,2013-10-16 12:54:00,
2013-10-16 07:59:00,48.5,48.5,29.80,WSW,257,0.0,-999.0,100,0.00,,,0.00,18,WeatherHawk,2013-10-16 12:59:00,
2013-10-16 08:04:00,48.6,48.6,29.80,SSW,208,2.0,-999.0,100,0.00,,,0.00,21,WeatherHawk,2013-10-16 13:04:00,
2013-10-16 08:09:00,48.8,48.8,29.79,West,268,0.0,-999.0,100,0.00,,,0.00,19,WeatherHawk,2013-10-16 13:09:00,
2013-10-16 08:14:00,48.7,48.7,29.80,SW,231,3.0,-999.0,100,0.00,,,0.00,15,WeatherHawk,2013-10-16 13:14:00,
2013-10-16 08:19:00,48.9,48.9,29.80,West,261,4.0,-999.0,100,0.00,,,0.00,21,WeatherHawk,2013-10-16 13:19:00,
2013-10-16 08:24:00,48.8,48.8,29.80,WSW,237,4.0,-999.0,100,0.00,,,0.00,23,WeatherHawk,2013-10-16 13:24:00,
2013-10-16 08:29:00,48.9,48.9,29.81,WSW,251,4.0,-999.0,100,0.00,,,0.00,30,WeatherHawk,2013-10-16 13:29:00,
2013-10-16 08:34:00,49.0,49.0,29.80,WSW,252,2.0,-999.0,100,0.00,,,0.00,29,WeatherHawk,2013-10-16 13:34:00,
2013-10-16 08:39:00,49.1,49.1,29.80,WSW,239,1.0,-999.0,100,0.00,,,0.00,37,WeatherHawk,2013-10-16 13:39:00,
2013-10-16 08:44:00,49.2,49.2,29.80,SW,216,5.0,-999.0,100,0.00,,,0.00,60,WeatherHawk,2013-10-16 13:44:00,
2013-10-16 08:49:00,49.9,49.9,29.80,West,270,0.0,-999.0,100,0.00,,,0.00,79,WeatherHawk,2013-10-16 13:49:00,
2013-10-16 08:54:00,49.7,49.4,29.81,West,264,4.0,-999.0,99,0.00,,,0.00,91,WeatherHawk,2013-10-16 13:54:00,
2013-10-16 08:59:00,50.0,49.5,29.80,WSW,253,3.0,-999.0,98,0.00,,,0.00,97,WeatherHawk,2013-10-16 13:59:00,
2013-10-16 09:04:00,50.0,49.2,29.81,West,274,2.0,-999.0,97,0.00,,,0.00,115,WeatherHawk,2013-10-16 14:04:00,
2013-10-16 09:09:00,50.3,49.5,29.81,WNW,293,3.0,-999.0,97,0.00,,,0.00,126,WeatherHawk,2013-10-16 14:09:00,
2013-10-16 09:14:00,50.6,49.5,29.80,SSW,200,5.0,-999.0,96,0.00,,,0.00,126,WeatherHawk,2013-10-16 14:14:00,
2013-10-16 09:19:00,50.6,49.0,29.81,WSW,244,4.0,-999.0,94,0.00,,,0.00,163,WeatherHawk,2013-10-16 14:19:00,
2013-10-16 09:24:00,50.6,48.9,29.82,WNW,292,4.0,-999.0,94,0.00,,,0.00,95,WeatherHawk,2013-10-16 14:24:00,
2013-10-16 09:29:00,50.7,49.3,29.82,WNW,287,4.0,-999.0,95,0.00,,,0.00,86,WeatherHawk,2013-10-16 14:29:00,
2013-10-16 09:34:00,50.8,49.7,29.81,West,268,2.0,-999.0,96,0.00,,,0.00,82,WeatherHawk,2013-10-16 14:34:00,
2013-10-16 09:39:00,51.0,49.9,29.82,West,260,1.0,-999.0,96,0.00,,,0.00,86,WeatherHawk,2013-10-16 14:39:00,
2013-10-16 09:44:00,50.4,49.3,29.82,West,260,7.0,-999.0,96,0.00,,,0.00,79,WeatherHawk,2013-10-16 14:44:00,
2013-10-16 09:49:00,51.1,50.6,29.82,NW,314,0.0,-999.0,98,0.00,,,0.00,98,WeatherHawk,2013-10-16 14:49:00,
2013-10-16 09:54:00,50.7,49.6,29.83,West,267,4.0,-999.0,96,0.00,,,0.00,125,WeatherHawk,2013-10-16 14:54:00,
2013-10-16 09:59:00,51.0,49.9,29.82,WSW,252,5.0,-999.0,96,0.00,,,0.00,120,WeatherHawk,2013-10-16 14:59:00,
2013-10-16 10:04:00,51.1,50.0,29.83,WSW,237,2.0,-999.0,96,0.00,,,0.00,104,WeatherHawk,2013-10-16 15:04:00,
2013-10-16 10:09:00,51.5,49.8,29.83,West,259,3.0,-999.0,94,0.00,,,0.00,128,WeatherHawk,2013-10-16 15:09:00,
2013-10-16 10:14:00,51.9,50.0,29.83,SW,231,0.0,-999.0,93,0.00,,,0.00,123,WeatherHawk,2013-10-16 15:14:00,
2013-10-16 10:19:00,51.2,49.2,29.83,West,264,4.0,-999.0,93,0.00,,,0.00,98,WeatherHawk,2013-10-16 15:19:00,
2013-10-16 10:24:00,51.8,49.8,29.82,SW,234,4.0,-999.0,93,0.00,,,0.00,160,WeatherHawk,2013-10-16 15:24:00,
2013-10-16 10:29:00,52.4,50.5,29.83,WSW,240,2.0,-999.0,93,0.00,,,0.00,137,WeatherHawk,2013-10-16 15:29:00,
2013-10-16 10:34:00,52.2,49.4,29.83,WNW,282,3.0,-999.0,90,0.00,,,0.00,171,WeatherHawk,2013-10-16 15:34:00,
2013-10-16 10:39:00,52.6,47.9,29.83,WNW,288,7.0,-999.0,84,0.00,,,0.00,342,WeatherHawk,2013-10-16 15:39:00,
2013-10-16 10:44:00,53.8,48.8,29.83,West,271,3.0,-999.0,83,0.00,,,0.00,243,WeatherHawk,2013-10-16 15:44:00,
2013-10-16 10:49:00,53.3,47.6,29.82,NW,307,2.0,-999.0,81,0.00,,,0.00,141,WeatherHawk,2013-10-16 15:49:00,
2013-10-16 10:54:00,54.0,49.3,29.83,NW,310,0.0,-999.0,84,0.00,,,0.00,215,WeatherHawk,2013-10-16 15:54:00,
2013-10-16 11:04:00,53.7,47.6,29.82,NW,313,1.0,-999.0,80,0.00,,,0.00,118,WeatherHawk,2013-10-16 16:04:00,
2013-10-16 11:09:00,52.7,46.7,29.84,West,261,5.0,-999.0,80,0.00,,,0.00,80,WeatherHawk,2013-10-16 16:09:00,
2013-10-16 11:14:00,52.4,47.4,29.83,WNW,291,4.0,-999.0,83,0.00,,,0.00,126,WeatherHawk,2013-10-16 16:14:00,
2013-10-16 11:19:00,52.1,47.5,29.83,NNW,340,5.0,-999.0,84,0.00,,,0.00,81,WeatherHawk,2013-10-16 16:19:00,
2013-10-16 11:24:00,51.7,47.4,29.84,West,268,8.0,-999.0,85,0.00,,,0.00,57,WeatherHawk,2013-10-16 16:24:00,
2013-10-16 11:29:00,52.0,47.7,29.85,West,267,5.0,-999.0,85,0.00,,,0.00,63,WeatherHawk,2013-10-16 16:29:00,
2013-10-16 11:34:00,52.0,47.3,29.84,West,265,2.0,-999.0,84,0.00,,,0.00,72,WeatherHawk,2013-10-16 16:34:00,
2013-10-16 11:39:00,51.8,46.8,29.83,WSW,252,6.0,-999.0,83,0.00,,,0.00,104,WeatherHawk,2013-10-16 16:39:00,
2013-10-16 11:44:00,52.7,48.0,29.83,NNW,327,2.0,-999.0,84,0.00,,,0.00,134,WeatherHawk,2013-10-16 16:44:00,
2013-10-16 11:49:00,52.3,47.3,29.85,WNW,285,4.0,-999.0,83,0.00,,,0.00,72,WeatherHawk,2013-10-16 16:49:00,
2013-10-16 11:54:00,51.6,46.6,29.85,NW,316,5.0,-999.0,83,0.00,,,0.00,71,WeatherHawk,2013-10-16 16:54:00,
2013-10-16 11:59:00,51.8,46.8,29.85,WNW,301,3.0,-999.0,83,0.00,,,0.00,115,WeatherHawk,2013-10-16 16:59:00,
2013-10-16 12:04:00,52.0,47.3,29.84,NW,318,4.0,-999.0,84,0.00,,,0.00,162,WeatherHawk,2013-10-16 17:04:00,
2013-10-16 12:09:00,52.4,47.1,29.84,WNW,302,5.0,-999.0,82,0.00,,,0.00,211,WeatherHawk,2013-10-16 17:09:00,
2013-10-16 12:14:00,53.1,46.8,29.84,ENE,74,5.0,-999.0,79,0.00,,,0.00,188,WeatherHawk,2013-10-16 17:14:00,
2013-10-16 12:19:00,53.4,47.4,29.85,WSW,244,4.0,-999.0,80,0.00,,,0.00,193,WeatherHawk,2013-10-16 17:19:00,
2013-10-16 12:24:00,52.2,45.5,29.85,NNW,331,3.0,-999.0,78,0.00,,,0.00,118,WeatherHawk,2013-10-16 17:24:00,
2013-10-16 12:29:00,51.3,45.0,29.85,NW,306,5.0,-999.0,79,0.00,,,0.00,80,WeatherHawk,2013-10-16 17:29:00,
2013-10-16 12:34:00,51.7,46.4,29.84,SSW,200,2.0,-999.0,82,0.00,,,0.00,113,WeatherHawk,2013-10-16 17:34:00,
2013-10-16 12:39:00,51.6,46.3,29.85,West,264,6.0,-999.0,82,0.00,,,0.00,105,WeatherHawk,2013-10-16 17:39:00,
2013-10-16 12:44:00,51.6,46.3,29.85,WSW,248,3.0,-999.0,82,0.00,,,0.00,103,WeatherHawk,2013-10-16 17:44:00,
2013-10-16 12:49:00,51.5,46.2,29.85,WSW,246,6.0,-999.0,82,0.00,,,0.00,119,WeatherHawk,2013-10-16 17:49:00,
2013-10-16 12:54:00,51.6,45.9,29.85,WSW,258,4.0,-999.0,81,0.00,,,0.00,131,WeatherHawk,2013-10-16 17:54:00,
2013-10-16 12:59:00,51.5,46.2,29.84,WSW,241,7.0,-999.0,82,0.00,,,0.00,118,WeatherHawk,2013-10-16 17:59:00,
2013-10-16 13:04:00,51.6,46.6,29.85,West,269,3.0,-999.0,83,0.00,,,0.00,122,WeatherHawk,2013-10-16 18:04:00,
2013-10-16 13:09:00,51.6,46.6,29.85,West,274,3.0,-999.0,83,0.00,,,0.00,108,WeatherHawk,2013-10-16 18:09:00,
2013-10-16 13:14:00,51.8,46.8,29.85,NW,312,1.0,-999.0,83,0.00,,,0.00,90,WeatherHawk,2013-10-16 18:14:00,
2013-10-16 13:19:00,51.5,46.5,29.85,WSW,237,4.0,-999.0,83,0.00,,,0.00,81,WeatherHawk,2013-10-16 18:19:00,
2013-10-16 13:24:00,51.5,47.1,29.85,West,278,2.0,-999.0,85,0.00,,,0.00,71,WeatherHawk,2013-10-16 18:24:00,
2013-10-16 13:29:00,51.1,46.4,29.86,WSW,255,4.0,-999.0,84,0.00,,,0.00,67,WeatherHawk,2013-10-16 18:29:00,
2013-10-16 13:34:00,50.8,46.5,29.85,WSW,242,7.0,-999.0,85,0.00,,,0.00,58,WeatherHawk,2013-10-16 18:34:00,
2013-10-16 13:39:00,51.0,46.9,29.86,WNW,294,4.0,-999.0,86,0.00,,,0.00,64,WeatherHawk,2013-10-16 18:39:00,
2013-10-16 13:44:00,50.6,46.6,29.84,North,350,5.0,-999.0,86,0.00,,,0.00,66,WeatherHawk,2013-10-16 18:44:00,
2013-10-16 13:49:00,50.6,46.6,29.85,NNW,340,7.0,-999.0,86,0.00,,,0.00,77,WeatherHawk,2013-10-16 18:49:00,
2013-10-16 13:54:00,50.9,46.9,29.84,SW,234,3.0,-999.0,86,0.00,,,0.00,81,WeatherHawk,2013-10-16 18:54:00,
2013-10-16 13:59:00,50.8,47.1,29.84,WNW,289,5.0,-999.0,87,0.00,,,0.00,81,WeatherHawk,2013-10-16 18:59:00,
2013-10-16 14:04:00,50.6,47.1,29.85,West,274,1.0,-999.0,88,0.00,,,0.00,68,WeatherHawk,2013-10-16 19:04:00,
2013-10-16 14:09:00,50.4,46.7,29.84,West,274,7.0,-999.0,87,0.00,,,0.00,71,WeatherHawk,2013-10-16 19:09:00,
2013-10-16 14:14:00,50.4,47.0,29.85,WNW,289,6.0,-999.0,88,0.00,,,0.00,69,WeatherHawk,2013-10-16 19:14:00,
2013-10-16 14:19:00,50.8,47.4,29.85,NW,317,2.0,-999.0,88,0.00,,,0.00,88,WeatherHawk,2013-10-16 19:19:00,
2013-10-16 14:24:00,50.9,46.8,29.84,NNE,17,3.0,-999.0,86,0.00,,,0.00,96,WeatherHawk,2013-10-16 19:24:00,
2013-10-16 14:29:00,50.6,46.5,29.85,NW,315,6.0,-999.0,86,0.00,,,0.00,63,WeatherHawk,2013-10-16 19:29:00,
2013-10-16 14:34:00,50.3,46.6,29.84,NNW,334,4.0,-999.0,87,0.00,,,0.00,49,WeatherHawk,2013-10-16 19:34:00,
2013-10-16 14:39:00,50.3,46.6,29.84,NNE,29,5.0,-999.0,87,0.00,,,0.00,45,WeatherHawk,2013-10-16 19:39:00,
2013-10-16 14:44:00,50.5,47.1,29.85,West,280,3.0,-999.0,88,0.00,,,0.00,39,WeatherHawk,2013-10-16 19:44:00,
2013-10-16 14:49:00,50.0,47.2,29.85,WNW,303,4.0,-999.0,90,0.00,,,0.00,40,WeatherHawk,2013-10-16 19:49:00,
2013-10-16 14:54:00,50.0,47.2,29.85,NW,304,4.0,-999.0,90,0.00,,,0.00,42,WeatherHawk,2013-10-16 19:54:00,
2013-10-16 14:59:00,50.0,47.8,29.85,West,267,1.0,-999.0,92,0.00,,,0.00,45,WeatherHawk,2013-10-16 19:59:00,
2013-10-16 15:04:00,49.7,48.1,29.85,West,268,1.0,-999.0,94,0.00,,,0.00,55,WeatherHawk,2013-10-16 20:04:00,
2013-10-16 15:09:00,49.8,47.9,29.86,SW,214,2.0,-999.0,93,0.00,,,0.00,57,WeatherHawk,2013-10-16 20:09:00,
2013-10-16 15:14:00,50.2,48.0,29.85,WSW,257,3.0,-999.0,92,0.00,,,0.00,53,WeatherHawk,2013-10-16 20:14:00,
2013-10-16 15:19:00,50.4,48.1,29.86,West,267,1.0,-999.0,92,0.00,,,0.00,55,WeatherHawk,2013-10-16 20:19:00,
2013-10-16 15:24:00,50.3,47.5,29.87,WNW,287,3.0,-999.0,90,0.00,,,0.00,62,WeatherHawk,2013-10-16 20:24:00,
2013-10-16 15:29:00,50.2,47.1,29.86,WNW,300,4.0,-999.0,89,0.00,,,0.00,29,WeatherHawk,2013-10-16 20:29:00,
2013-10-16 15:34:00,50.2,47.3,29.86,WNW,296,2.0,-999.0,90,0.00,,,0.00,29,WeatherHawk,2013-10-16 20:34:00,
2013-10-16 15:39:00,50.2,47.3,29.85,NW,307,1.0,-999.0,90,0.00,,,0.00,54,WeatherHawk,2013-10-16 20:39:00,
2013-10-16 15:44:00,50.5,47.0,29.86,West,262,3.0,-999.0,88,0.00,,,0.00,78,WeatherHawk,2013-10-16 20:44:00,
2013-10-16 15:49:00,50.8,47.6,29.85,WSW,251,0.0,-999.0,89,0.00,,,0.00,62,WeatherHawk,2013-10-16 20:49:00,
2013-10-16 15:54:00,50.7,47.0,29.85,WSW,239,4.0,-999.0,87,0.00,,,0.00,56,WeatherHawk,2013-10-16 20:54:00,
2013-10-16 15:59:00,50.7,46.9,29.85,West,263,0.0,-999.0,87,0.00,,,0.00,39,WeatherHawk,2013-10-16 20:59:00,
2013-10-16 16:04:00,50.5,46.5,29.86,WSW,237,2.0,-999.0,86,0.00,,,0.00,35,WeatherHawk,2013-10-16 21:04:00,
2013-10-16 16:09:00,50.6,46.8,29.85,WNW,290,1.0,-999.0,87,0.00,,,0.00,45,WeatherHawk,2013-10-16 21:09:00,
2013-10-16 16:14:00,50.6,46.9,29.87,WSW,243,4.0,-999.0,87,0.00,,,0.00,36,WeatherHawk,2013-10-16 21:14:00,
2013-10-16 16:19:00,50.7,46.7,29.86,WNW,284,3.0,-999.0,86,0.00,,,0.00,37,WeatherHawk,2013-10-16 21:19:00,
2013-10-16 16:24:00,50.5,46.5,29.86,SW,236,1.0,-999.0,86,0.00,,,0.00,26,WeatherHawk,2013-10-16 21:24:00,
2013-10-16 16:29:00,50.4,46.7,29.86,West,275,3.0,-999.0,87,0.00,,,0.00,15,WeatherHawk,2013-10-16 21:29:00,
2013-10-16 16:34:00,50.2,46.5,29.87,West,261,4.0,-999.0,87,0.00,,,0.00,21,WeatherHawk,2013-10-16 21:34:00,
2013-10-16 16:39:00,50.2,46.8,29.85,West,265,1.0,-999.0,88,0.00,,,0.00,21,WeatherHawk,2013-10-16 21:39:00,
2013-10-16 16:44:00,50.2,46.8,29.86,WSW,243,0.0,-999.0,88,0.00,,,0.00,16,WeatherHawk,2013-10-16 21:44:00,
2013-10-16 16:49:00,50.2,46.7,29.86,West,265,1.0,-999.0,88,0.00,,,0.00,10,WeatherHawk,2013-10-16 21:49:00,
2013-10-16 16:54:00,50.1,46.6,29.85,WSW,256,2.0,-999.0,88,0.00,,,0.00,11,WeatherHawk,2013-10-16 21:54:00,
2013-10-16 16:59:00,49.9,46.8,29.86,West,279,3.0,-999.0,89,0.00,,,0.00,8,WeatherHawk,2013-10-16 21:59:00,
2013-10-16 17:04:00,49.7,46.9,29.86,SW,231,1.0,-999.0,90,0.00,,,0.00,8,WeatherHawk,2013-10-16 22:04:00,
2013-10-16 17:09:00,49.4,47.5,29.87,WNW,283,5.0,-999.0,93,0.00,,,0.00,7,WeatherHawk,2013-10-16 22:09:00,
2013-10-16 17:14:00,49.3,47.6,29.87,WSW,251,0.0,-999.0,94,0.00,,,0.00,5,WeatherHawk,2013-10-16 22:14:00,
2013-10-16 17:19:00,49.3,47.9,29.87,WNW,296,1.0,-999.0,95,0.00,,,0.00,6,WeatherHawk,2013-10-16 22:19:00,
2013-10-16 17:24:00,49.3,47.9,29.86,NNW,330,3.0,-999.0,95,0.00,,,0.00,3,WeatherHawk,2013-10-16 22:24:00,
2013-10-16 17:29:00,49.3,47.6,29.86,WSW,252,2.0,-999.0,94,0.00,,,0.00,5,WeatherHawk,2013-10-16 22:29:00,
2013-10-16 17:34:00,49.3,47.6,29.87,WSW,255,3.0,-999.0,94,0.00,,,0.00,5,WeatherHawk,2013-10-16 22:34:00,
2013-10-16 17:39:00,49.3,47.6,29.88,West,278,3.0,-999.0,94,0.00,,,0.00,5,WeatherHawk,2013-10-16 22:39:00,
2013-10-16 17:44:00,49.3,47.7,29.87,NW,304,3.0,-999.0,94,0.00,,,0.00,1,WeatherHawk,2013-10-16 22:44:00,
2013-10-16 17:49:00,49.2,47.6,29.87,West,265,0.0,-999.0,94,0.00,,,0.00,2,WeatherHawk,2013-10-16 22:49:00,
2013-10-16 17:54:00,49.2,47.9,29.87,West,274,0.0,-999.0,95,0.00,,,0.00,0,WeatherHawk,2013-10-16 22:54:00,
2013-10-16 17:59:00,49.2,47.6,29.87,NW,313,2.0,-999.0,94,0.00,,,0.00,1,WeatherHawk,2013-10-16 22:59:00,
2013-10-16 18:04:00,48.5,47.1,29.88,West,271,4.0,-999.0,95,0.00,,,0.00,0,WeatherHawk,2013-10-16 23:04:00,
2013-10-16 18:09:00,48.6,47.5,29.87,WNW,300,4.0,-999.0,96,0.00,,,0.00,0,WeatherHawk,2013-10-16 23:09:00,
2013-10-16 18:14:00,48.6,47.5,29.88,WSW,258,1.0,-999.0,96,0.00,,,0.00,0,WeatherHawk,2013-10-16 23:14:00,
2013-10-16 18:19:00,48.6,48.0,29.88,NNW,330,2.0,-999.0,98,0.00,,,0.00,0,WeatherHawk,2013-10-16 23:19:00,
2013-10-16 18:24:00,48.4,48.4,29.87,West,261,2.0,-999.0,100,0.00,,,0.00,0,WeatherHawk,2013-10-16 23:24:00,
2013-10-16 18:29:00,48.2,48.2,29.88,West,275,0.0,-999.0,100,0.00,,,0.00,0,WeatherHawk,2013-10-16 23:29:00,
2013-10-16 18:34:00,48.2,48.2,29.88,West,260,0.0,-999.0,100,0.00,,,0.00,0,WeatherHawk,2013-10-16 23:34:00,
2013-10-16 18:39:00,48.2,48.2,29.88,West,273,0.0,-999.0,100,0.00,,,0.00,0,WeatherHawk,2013-10-16 23:39:00,
2013-10-16 18:44:00,48.3,48.3,29.88,West,277,0.0,-999.0,100,0.00,,,0.00,0,WeatherHawk,2013-10-16 23:44:00,
2013-10-16 18:49:00,48.4,48.4,29.88,West,273,1.0,-999.0,100,0.00,,,0.00,0,WeatherHawk,2013-10-16 23:49:00,
2013-10-16 18:54:00,48.2,48.2,29.89,NNW,329,3.0,-999.0,100,0.00,,,0.00,0,WeatherHawk,2013-10-16 23:54:00,
2013-10-16 18:59:00,47.2,47.2,29.88,NW,313,6.0,-999.0,100,0.00,,,0.00,0,WeatherHawk,2013-10-16 23:59:00,
2013-10-16 19:04:00,46.9,46.9,29.89,NNW,329,2.0,-999.0,100,0.00,,,0.00,0,WeatherHawk,2013-10-17 00:04:00,
2013-10-16 19:09:00,46.9,46.9,29.89,WNW,290,4.0,-999.0,100,0.00,,,0.00,0,WeatherHawk,2013-10-17 00:09:00,
2013-10-16 19:14:00,47.1,47.1,29.89,NW,318,0.0,-999.0,100,0.00,,,0.00,0,WeatherHawk,2013-10-17 00:14:00,
2013-10-16 19:19:00,47.3,47.3,29.88,NW,318,0.0,-999.0,100,0.00,,,0.00,0,WeatherHawk,2013-10-17 00:19:00,
2013-10-16 19:24:00,47.2,47.2,29.88,NW,323,0.0,-999.0,100,0.00,,,0.00,0,WeatherHawk,2013-10-17 00:24:00,
2013-10-16 19:29:00,47.4,47.4,29.89,NW,320,2.0,-999.0,100,0.00,,,0.00,0,WeatherHawk,2013-10-17 00:29:00,
2013-10-16 19:34:00,47.4,47.4,29.89,West,274,0.0,-999.0,100,0.00,,,0.00,1,WeatherHawk,2013-10-17 00:34:00,
2013-10-16 19:39:00,47.3,47.3,29.88,West,274,0.0,-999.0,100,0.00,,,0.00,0,WeatherHawk,2013-10-17 00:39:00,
2013-10-16 19:44:00,47.4,47.4,29.89,WSW,250,0.0,-999.0,100,0.00,,,0.00,0,WeatherHawk,2013-10-17 00:44:00,
2013-10-16 19:49:00,47.4,47.4,29.88,West,280,0.0,-999.0,100,0.00,,,0.00,0,WeatherHawk,2013-10-17 00:49:00,
2013-10-16 19:54:00,47.3,47.3,29.89,WNW,285,0.0,-999.0,100,0.00,,,0.00,0,WeatherHawk,2013-10-17 00:54:00,
2013-10-16 19:59:00,47.5,47.5,29.88,NW,324,2.0,-999.0,100,0.00,,,0.00,0,WeatherHawk,2013-10-17 00:59:00,
2013-10-16 20:04:00,47.5,47.5,29.89,NW,323,4.0,-999.0,100,0.00,,,0.00,1,WeatherHawk,2013-10-17 01:04:00,
2013-10-16 20:09:00,47.4,47.4,29.89,West,278,2.0,-999.0,100,0.00,,,0.00,0,WeatherHawk,2013-10-17 01:09:00,
2013-10-16 20:14:00,47.5,47.5,29.89,NW,321,0.0,-999.0,100,0.00,,,0.00,0,WeatherHawk,2013-10-17 01:14:00,
2013-10-16 20:19:00,47.4,47.4,29.89,West,272,0.0,-999.0,100,0.00,,,0.00,0,WeatherHawk,2013-10-17 01:19:00,
2013-10-16 20:24:00,47.5,47.5,29.89,West,277,2.0,-999.0,100,0.00,,,0.00,1,WeatherHawk,2013-10-17 01:24:00,
2013-10-16 20:29:00,47.5,47.5,29.89,WNW,294,0.0,-999.0,100,0.00,,,0.00,0,WeatherHawk,2013-10-17 01:29:00,
2013-10-16 20:34:00,47.6,47.6,29.89,NW,324,2.0,-999.0,100,0.00,,,0.00,1,WeatherHawk,2013-10-17 01:34:00,
2013-10-16 20:39:00,47.5,47.5,29.89,NW,305,0.0,-999.0,100,0.00,,,0.00,0,WeatherHawk,2013-10-17 01:39:00,
2013-10-16 20:44:00,47.5,47.5,29.89,NW,321,0.0,-999.0,100,0.00,,,0.00,0,WeatherHawk,2013-10-17 01:44:00,
2013-10-16 20:49:00,47.5,47.5,29.89,NW,312,0.0,-999.0,100,0.00,,,0.00,0,WeatherHawk,2013-10-17 01:49:00,
2013-10-16 20:54:00,47.4,47.4,29.90,WNW,296,0.0,-999.0,100,0.00,,,0.00,0,WeatherHawk,2013-10-17 01:54:00,
2013-10-16 20:59:00,47.5,47.5,29.89,WSW,258,0.0,-999.0,100,0.00,,,0.00,0,WeatherHawk,2013-10-17 01:59:00,
2013-10-16 21:04:00,47.4,47.4,29.89,West,266,0.0,-999.0,100,0.00,,,0.00,0,WeatherHawk,2013-10-17 02:04:00,
2013-10-16 21:09:00,47.4,47.4,29.90,WNW,293,0.0,-999.0,100,0.00,,,0.00,0,WeatherHawk,2013-10-17 02:09:00,
2013-10-16 21:14:00,47.4,47.4,29.90,WNW,293,0.0,-999.0,100,0.00,,,0.00,0,WeatherHawk,2013-10-17 02:14:00,
2013-10-16 21:19:00,47.5,47.5,29.89,North,349,0.0,-999.0,100,0.00,,,0.00,0,WeatherHawk,2013-10-17 02:19:00,
2013-10-16 21:24:00,47.4,47.4,29.89,NW,320,0.0,-999.0,100,0.00,,,0.00,0,WeatherHawk,2013-10-17 02:24:00,
2013-10-16 21:29:00,47.4,47.4,29.89,WNW,293,0.0,-999.0,100,0.00,,,0.00,0,WeatherHawk,2013-10-17 02:29:00,
2013-10-16 21:34:00,47.4,47.4,29.89,West,262,0.0,-999.0,100,0.00,,,0.00,1,WeatherHawk,2013-10-17 02:34:00,
2013-10-16 21:39:00,47.4,47.4,29.89,NW,314,0.0,-999.0,100,0.00,,,0.00,0,WeatherHawk,2013-10-17 02:39:00,
2013-10-16 21:44:00,47.3,47.3,29.90,West,277,0.0,-999.0,100,0.00,,,0.00,0,WeatherHawk,2013-10-17 02:44:00,
2013-10-16 21:49:00,47.4,47.4,29.90,NW,319,1.0,-999.0,100,0.00,,,0.00,0,WeatherHawk,2013-10-17 02:49:00,
2013-10-16 21:54:00,47.4,47.4,29.90,WNW,285,0.0,-999.0,100,0.00,,,0.00,0,WeatherHawk,2013-10-17 02:54:00,
2013-10-16 21:59:00,47.5,47.5,29.90,NW,320,4.0,-999.0,100,0.00,,,0.00,0,WeatherHawk,2013-10-17 02:59:00,
2013-10-16 22:04:00,47.3,47.3,29.90,NW,306,0.0,-999.0,100,0.00,,,0.00,1,WeatherHawk,2013-10-17 03:04:00,
2013-10-16 22:09:00,47.3,47.3,29.90,North,2,0.0,-999.0,100,0.00,,,0.00,1,WeatherHawk,2013-10-17 03:09:00,
2013-10-16 22:14:00,47.2,47.2,29.90,WNW,299,0.0,-999.0,100,0.00,,,0.00,0,WeatherHawk,2013-10-17 03:14:00,
2013-10-16 22:19:00,47.2,47.2,29.90,NW,325,2.0,-999.0,100,0.00,,,0.00,0,WeatherHawk,2013-10-17 03:19:00,
2013-10-16 22:24:00,47.1,47.1,29.90,NNW,327,0.0,-999.0,100,0.00,,,0.00,0,WeatherHawk,2013-10-17 03:24:00,
2013-10-16 22:29:00,47.0,47.0,29.89,West,277,0.0,-999.0,100,0.00,,,0.00,0,WeatherHawk,2013-10-17 03:29:00,
2013-10-16 22:34:00,46.9,46.9,29.90,West,277,0.0,-999.0,100,0.00,,,0.00,0,WeatherHawk,2013-10-17 03:34:00,
2013-10-16 22:39:00,46.9,46.9,29.90,West,277,0.0,-999.0,100,0.00,,,0.00,0,WeatherHawk,2013-10-17 03:39:00,
2013-10-16 22:44:00,46.8,46.8,29.90,West,277,0.0,-999.0,100,0.00,,,0.00,0,WeatherHawk,2013-10-17 03:44:00,
2013-10-16 22:49:00,46.6,46.6,29.90,West,277,0.0,-999.0,100,0.00,,,0.00,0,WeatherHawk,2013-10-17 03:49:00,
2013-10-16 22:54:00,46.6,46.6,29.90,West,277,0.0,-999.0,100,0.00,,,0.00,0,WeatherHawk,2013-10-17 03:54:00,
2013-10-16 22:59:00,46.5,46.5,29.90,West,277,0.0,-999.0,100,0.00,,,0.00,0,WeatherHawk,2013-10-17 03:59:00,
2013-10-16 23:04:00,46.5,46.5,29.89,West,277,0.0,-999.0,100,0.00,,,0.00,0,WeatherHawk,2013-10-17 04:04:00,
2013-10-16 23:09:00,46.3,46.3,29.90,West,277,0.0,-999.0,100,0.00,,,0.00,0,WeatherHawk,2013-10-17 04:09:00,
2013-10-16 23:14:00,46.4,46.4,29.90,West,277,0.0,-999.0,100,0.00,,,0.00,0,WeatherHawk,2013-10-17 04:14:00,
2013-10-16 23:19:00,46.3,46.3,29.89,West,277,0.0,-999.0,100,0.00,,,0.00,0,WeatherHawk,2013-10-17 04:19:00,
2013-10-16 23:24:00,46.3,46.3,29.89,West,277,0.0,-999.0,100,0.00,,,0.00,0,WeatherHawk,2013-10-17 04:24:00,
2013-10-16 23:29:00,46.2,46.2,29.90,West,277,0.0,-999.0,100,0.00,,,0.00,0,WeatherHawk,2013-10-17 04:29:00,
2013-10-16 23:34:00,46.2,46.2,29.89,West,277,0.0,-999.0,100,0.00,,,0.00,0,WeatherHawk,2013-10-17 04:34:00,
2013-10-16 23:44:00,46.1,46.1,29.90,SW,234,0.0,-999.0,100,0.00,,,0.00,0,WeatherHawk,2013-10-17 04:44:00,
2013-10-16 23:54:00,46.1,46.1,29.89,SW,236,0.0,-999.0,100,0.00,,,0.00,0,WeatherHawk,2013-10-17 04:54:00,
2013-10-16 23:59:00,46.2,46.2,29.89,West,260,0.0,-999.0,100,0.00,,,0.00,0,WeatherHawk,2013-10-17 04:59:00,